Regional Weather Roundup
Issued by NWS

Home | Current Version | Previous Version | Text Only | Print | Product List | Glossary Off
Versions: 1 2 3 4 5 6 7 8 9 10 11 12 13 14 15 16 17 18 19 20 21 22 23 24 25 26 27 28 29 30 31 32 33 34 35 36 37 38 39 40 41 42 43 44 45 46 47 48 49 50

132
ASUS44 KLIX 211305
RWRLA
LOUISIANA WEATHER ROUNDUP
NATIONAL WEATHER SERVICE NEW ORLEANS LA
800 AM CDT TUE OCT 21 2014

NOTE: "FAIR" INDICATES FEW OR NO CLOUDS BELOW 12,000 FEET WITH NO
      SIGNIFICANT WEATHER AND/OR OBSTRUCTIONS TO VISIBILITY.
      SKY/WX - SKY CONDITION AND SIGNIFICANT WEATHER.
      TMP - AIR TEMPERATURE.    DP   - DEWPOINT TEMPERATURE.
      RH  - RELATIVE HUMIDITY.  PRES - PRESSURE.
      HX  - HEAT INDEX.         WCI  - WIND CHILL INDEX.

*  THESE STATIONS ARE NOT NWS OR FAA STATIONS AND ARE NOT UNDER
   NWS QUALITY CONTROL.

LAZ040-048-061>063-065-066-069-211400-
SOUTHEAST LOUISIANA

CITY           SKY/WX    TMP DP  RH WIND       PRES   REMARKS
N.O. AUDUBON     N/A     66  55  68 MISG        N/A
N.O. INTL ARPT MOSUNNY   67  56  67 NE8       30.04R
N.O. LAKEFRONT SUNNY     68  56  65 NE13      30.05R
N.O. DOWNTOWN* FAIR      64  52  63 NE7       30.05R
SLIDELL        FAIR      53  50  89 N3        30.05R
BATON ROUGE    CLEAR     57  52  83 NE5       30.07R
BOOTHVILLE     SUNNY     72  60  66 NE6       30.02R
BELLE CHASSE   MOSUNNY   60  54  80 NE5       30.03R
BOGALUSA*        N/A     52  48  89 CALM      30.08R
NEW ROADS*     FAIR      55  53  93 CALM      30.07R
GONZALES*      FAIR      56  56  97 CALM      30.05S
HAMMOND*       CLEAR     55  50  82 CALM      30.08R
HOUMA*         NOT AVBL
PORT FOURCHON* SUNNY     70  64  83 NE8       30.05R

$$

LAZ041-044-053-054-211400-
SOUTHWEST LOUISIANA

CITY           SKY/WX    TMP DP  RH WIND       PRES   REMARKS
LAKE CHARLES   CLEAR     59  54  83 NE6       30.05R
LAFAYETTE      CLEAR     57  54  89 NE5       30.06R
PATTERSON      NOT AVBL
SALT POINT       N/A     61  57  87 CALM      30.03R
NEW IBERIA     CLEAR     60  55  83 NE7       30.05R
CHENAULT AIRPK CLEAR     57  54  88 VRB3      30.06R

$$

LAZ027-028-211400-
CENTRAL LOUISIANA

CITY           SKY/WX    TMP DP  RH WIND       PRES   REMARKS
FORT POLK      CLEAR     58  54  86 NE6       30.07R
ALEXANDRIA INT CLEAR     54  53  97 CALM      30.07R
ALEXANDRIA     CLEAR     52  50  93 CALM      30.08R

$$

LAZ001-002-211400-
NORTHWEST LOUISIANA

CITY           SKY/WX    TMP DP  RH WIND       PRES   REMARKS
SHREVEPORT     PTCLDY    57  54  89 CALM      30.08R
BARKSDALE AFB  CLEAR     55  54  99 CALM      30.09R
DTN SHREVEPORT CLEAR     57  54  89 CALM      30.09R

$$

LAZ014-016-211400-
NORTHEAST LOUISIANA

CITY           SKY/WX    TMP DP  RH WIND       PRES   REMARKS
MONROE         CLOUDY    57  56  96 CALM      30.10R
TALLULAH       PTCLDY    52  51  97 CALM      30.09R

$$




USA.gov is the U.S. government's official web portal to all federal, state and local government web resources and services.